Location: �clusier
(49.9361°N, 2.7869°E)
Time: 07:46:31
(UTC+00:00)

ATLAS CENTAUR R/B - Pass Details

Date: 27 October 2021
Orbit: 452 x 688 km, 64.7° (Epoch: 06 December)

Event Time Altitude Azimuth Distance (km) Brightness Sun altitude
Exits shadow 05:35:53 - 319° (NW) 2,322 4.0 -9.3°
Reaches altitude 10° 05:37:35 10° 336° (NNW) 1,981 3.8 -9.0°
Maximum altitude 05:39:33 13° 2° (N) 1,843 3.9 -8.7°
Drops below altitude 10° 05:41:35 10° 28° (NNE) 2,042 4.5 -8.4°
Sets 05:45:19 0° 58° (ENE) 3,002 5.9 -7.8°
